Find Jilin-1 GaoFen 03D 31 xing

NORAD ID: 52448 Int'l Des: 2022-048 Owner: CGSTL Country: CN Constellation: jilin-1 operational
LEOCIRCULARRETROGRADE

实时位置

正在加载3D地球...

关于 Jilin-1 GaoFen 03D 31 xing

正在加载描述...

即将过境

Passes for default location (London). Set your location on the main map for personalized predictions.

高度历史

Loading altitude history...

两行轨道根数

1 52448U 22048F 26105.92347339 .00058196 00000-0 53808-3 0 9999
2 52448 97.5632 215.8062 0002045 251.5853 108.5185 15.67376097219798
Epoch: Apr 15, 2026 • Age: 12 hours

当前状态

高度 369.4 km
速度 7.69 km/s
星下点 12.55°N, 147.03°W
发射日期 May 5, 2022
运行时间 3.9 years
类型 earth observation

技术详情

分类 Payload
质量 42.00 kg
干质量 42.00 kg
总质量 42.00 kg
长度 1.50 m
直径 1.00 m
跨度 1.50 m
形状 Box
制造商 CGSTL
平台类型 JL-1
阶段状态 In Orbit
所有者/国家 CGSTL/CN

Most Searched